Ana Sayfa
METAR-TAF:

METAR-TAF

Havaalanları :

Dillon Airport

Dillon, Montana, Amerika Birleşik Devletleri

Enlem: 45-15-27N, Boylam: 112-33-16W, yükseklik: 1597 m

Güncel hava durumu gözlemi

Rapor saat 02:53 UTC de 1 saat ve 4 dakika önce yapıldı.
Rüzgar doğu/güneydoğudan 3 kt
Sıcaklık -3°C
Nem 80%
Basınç 1018 hPa
Görüş mesafesi: 16.1 km
Açık gökyüzü

METAR: KDLN 070253Z AUTO 12003KT 10SM CLR M03/M06 A3005 RMK AO2 SLP223 T10331056 58014

Saat: 20:57 (03:57 UTC)


TAF: eksik

4.000'den fazla havaalanı için hava durumu gözlemleri ve tahminleri (METAR ve TAF raporları).

Kullanılabilir istasyonlar harita üzerinde sarı ve kırmızı noktalarla gösterilir.

İstasyonun adını görmek için fareyi noktanın üzerinde gezdirin.

Sonrasında hava gözlem ve tahminlerini görmek için tıklayın.

Haritayı değiştirmek için: yaklaştırmak için siyah artı işaretli yeşil düğmeye ve uzaklaştırmak için de eksi işaretli düğmeye hızla tıklayın; bitişik haritalar için yeşil okları kullanın.


METAR-TAF: